Zurück zum Katalog

CZ-6A DEB

AktivPO
NORAD 61161·DEBRIS·🇨🇳 China

Gestartet Aug 6, 2024 von Taiyuan Satellite Launch Center

Loading…

Nächste Überflüge (nächste 24 Stunden)

TLE

AktuellSource: Space-Track

Epoche: Sep 14, 2026, 08:57 UTC

1 61161U 24140RF  26257.37346802  .00003416  00000-0  61799-3 0  9990
2 61161  88.8243 242.4572 0125707 336.2068  23.3363 14.61114380109690

Verfolge CZ-6A DEB in Echtzeit mit AllMySat

Download on the App Store